Location: Dal�� Lhota
(48.7500°N, 14.0167°E)
Time: 22:46:51
(UTC+00:00)

Cosmos 2151 Rocket - Pass Details

Date: 24 September 2020
Orbit: 618 x 642 km, 82.5° (Epoch: 24 October)

Event Time Altitude Azimuth Distance (km) Brightness Sun altitude
Rises 17:33:01 0° 166° (SSE) 2,911 6.8 -6.8°
Reaches altitude 10° 17:35:21 10° 158° (SSE) 2,012 5.9 -7.2°
Maximum altitude 17:39:28 37° 91° (E) 987 4.1 -7.8°
Drops below altitude 10° 17:43:38 10° 24° (NNE) 2,040 6.1 -8.5°
Sets 17:46:01 0° 17° (NNE) 2,957 7.0 -8.9°
